星链-34872 (STARLINK-34872)

导读

STARLINK-34872是美国SpaceX星链计划的卫星,于2025年8月22日发射升空。星链项目旨在构建全球卫星互联网星座,为全球多地提供高速低延迟宽带服务。该卫星延续星链设计标准,加入已规模部署的低轨卫星网络,进一步补充完善星链系统覆盖能力,推动全球卫星互联网络建设。

基本信息
目录编号:
65296
目录名称:
STARLINK-34872
国际标识:
2025-184Z
轨道中心:
EARTH
卫星名称:
星链-34872
卫星全名:
星链-34872 (STARLINK-34872)
卫星状态:
在轨 (已飞行387 天)
发射日期:
2025-08-22 UTC
国别 :
美国 (US)
星等 :
--
该卫星已列入 空间交会检测服务 Space Conjunction Data Service (SCDS) ,当前飞行风险评估等级: 无高风险
轨道信息
数据来源 国际轨道数据 AOE轨道数据
星历时间 2026-09-12T10:43:25+0800
23小时前
查看轨道信息
2026-09-06T23:00:00+0800
6天前
查看轨道信息
半长轴 6843.661km 6843.695km
偏心率 0.0001262 0.0000966
轨道倾角 97.282° 97.286°
近地点辐角 89.484° 63.371°
升交点赤经 303.266° 297.854°
平近点角 270.655° 257.952°
近地点 464.66km 464.896km
远地点 466.388km 466.22km
周期 93.906分钟 93.906分钟
每日圈数 15.334516 15.334403
详细信息
固有亮度:
5
最大亮度:
2.5
卫星平台:
Starlink V1.0
覆盖范围:
全球
运营商:
太空探索技术公司
运营商所在国:
美国
制造商(研发单位):
太空探索技术公司
制造商所在国:
美国
使用方式:
暂无
卫星简介
Starlink 计划是 SpaceX 推出的全球卫星互联网项目,通过发射低轨道卫星,为全球尤其是偏远地区提供高速、低延迟的互联网服务。自 2019 年起,Starlink 已部署数千颗卫星,旨在缩小全球数字鸿沟,推动互联网普及。该项目还为军事、航空等行业提供通信支持,带来广泛经济效益。
2D轨道图
3D轨道图
轨道高度分析图
轨道倾角分析图
轨道综合分析图
查看轨道综合分析图
与全量物体交会距离演化趋势
与全量物体交会风险概率演化趋势